• Join FlightAware (Why Join?)
  • Login
  • US Flag 
12:21AM EST


 

Airport Tracker/Info


-or-


 

Live Flight TrackerFlight Track Log ✈ ASQ5958 ✈ 18-Apr-2013 ✈ KPIT - KDEN

Flight Track Log - Related Links

Times and Time Zones

All times are in EDT time to prevent confusion due to time zone crossing. See the ASQ5958 flight status page for this flight to view local times or setup timezone preferences in your user account.

Time Position Orientation Groundspeed Altitude Reporting Facility
EDT Latitude Longitude Course Direction KTS MPH feet Rate Location/Type
11:03PM 40.4889 -80.1892 89° East 176 203 2,500  Level FAA TRACON SMA TRACON (SMA)
11:04PM 40.4892 -80.1683 89° East 182 209 3,000 1,200 Climbing FAA TRACON SMA TRACON (SMA)
11:04PM 40.4953 -80.1467 70° East 227 261 3,300 1,380 Climbing FAA TRACON SMA TRACON (SMA)
11:04PM 40.5131 -80.1175 51° Northeast 266 306 3,900 1,800 Climbing FAA TRACON SMA TRACON (SMA)
11:05PM 40.5361 -80.1089 16° North 282 325 4,500 1,440 Climbing FAA TRACON SMA TRACON (SMA)
11:05PM 40.5586 -80.1125 353° North 299 344 4,900 2,160 Climbing FAA TRACON SMA TRACON (SMA)
11:05PM 40.5803 -80.1422 314° West 278 320 6,000 2,700 Climbing FAA TRACON SMA TRACON (SMA)
11:06PM 40.5900 -80.1681 296° West 248 285 6,700 2,280 Climbing FAA TRACON SMA TRACON (SMA)
11:06PM 40.5939 -80.2017 279° West 252 290 7,500 2,400 Climbing FAA TRACON SMA TRACON (SMA)
11:06PM 40.5981 -80.2311 281° West 257 296 8,300 2,220 Climbing FAA TRACON SMA TRACON (SMA)
11:07PM 40.6017 -80.2594 280° West 256 295 9,000 2,220 Climbing FAA TRACON SMA TRACON (SMA)
11:07PM 40.6058 -80.2950 279° West 258 297 9,800 2,220 Climbing FAA TRACON SMA TRACON (SMA)
11:07PM 40.6147 -80.3219 293° West 257 296 10,500 1,500 Climbing FAA TRACON SMA TRACON (SMA)
11:08PM 40.6239 -80.3497 294° West 277 319 10,800 1,020 Climbing FAA TRACON SMA TRACON (SMA)
11:08PM 40.6372 -80.3861 296° West 291 335 11,200 1,200 Climbing FAA TRACON SMA TRACON (SMA)
11:08PM 40.6486 -80.4161 297° West 296 341 11,600 1,200 Climbing FAA TRACON SMA TRACON (SMA)
11:09PM 40.6600 -80.4475 296° West 308 354 12,000 1,320 Climbing FAA TRACON SMA TRACON (SMA)
11:09PM 40.6756 -80.4872 297° West 318 366 12,500 1,500 Climbing FAA TRACON SMA TRACON (SMA)
11:09PM 40.6883 -80.5197 297° West 320 368 13,000 1,500 Climbing FAA TRACON SMA TRACON (SMA)
11:10PM 40.7008 -80.5525 297° West 323 372 13,500 1,800 Climbing FAA TRACON SMA TRACON (SMA)
11:10PM 40.7167 -80.5925 298° West 322 371 14,200 1,800 Climbing FAA TRACON SMA TRACON (SMA)
11:10PM 40.7294 -80.6247 298° West 323 372 14,700 1,320 Climbing FAA TRACON SMA TRACON (SMA)
11:11PM 40.7400 -80.6586 292° West 321 369 15,100 1,320 Climbing FAA TRACON SMA TRACON (SMA)
11:11PM 40.7558 -80.7003 297° West 333 383 15,600 1,620 Climbing FAA TRACON SMA TRACON (SMA)
11:11PM 40.7703 -80.7331 300° West 335 386 16,200 1,500 Climbing FAA TRACON SMA TRACON (SMA)
11:12PM 40.7828 -80.7661 297° West 328 377 16,600 1,500 Climbing FAA TRACON SMA TRACON (SMA)
11:12PM 40.7900 -80.8106 282° West 314 361 17,200 1,500 Climbing FAA TRACON SMA TRACON (SMA)
11:12PM 40.7958 -80.8406 284° West 316 364 17,600 1,500 Climbing FAA TRACON SMA TRACON (SMA)
11:13PM 40.7983 -80.8814 275° West 314 361 18,200 1,920 Climbing FAA TRACON SMA TRACON (SMA)
11:13PM 40.8031 -80.9258 278° West 317 365 18,900 1,800 Climbing FAA TRACON SMA TRACON (SMA)
11:13PM 40.8097 -80.9550 287° West 315 362 19,400 1,320 Climbing FAA TRACON SMA TRACON (SMA)
11:14PM 40.8108 -80.9956 272° West 314 361 19,800 1,500 Climbing FAA TRACON SMA TRACON (SMA)
11:14PM 40.8156 -81.0397 278° West 316 364 20,400 1,500 Climbing FAA TRACON SMA TRACON (SMA)
11:14PM 40.8194 -81.0756 278° West 318 366 20,800 1,320 Climbing FAA TRACON SMA TRACON (SMA)
11:15PM 40.8233 -81.1117 278° West 321 369 21,300 1,440 Climbing FAA TRACON SMA TRACON (SMA)
11:15PM 40.8278 -81.1575 277° West 324 373 21,800 1,500 Climbing FAA TRACON SMA TRACON (SMA)
11:15PM 40.8317 -81.1942 278° West 326 375 22,300 1,200 Climbing FAA TRACON SMA TRACON (SMA)
11:16PM 40.8400 -81.2269 289° West 328 377 22,600 1,200 Climbing FAA TRACON SMA TRACON (SMA)
11:16PM 40.8403 -81.2781 270° West 333 383 23,100 1,320 Climbing FAA TRACON SMA TRACON (SMA)
11:16PM 40.8450 -81.3153 280° West 334 384 23,500 1,020 Climbing FAA TRACON SMA TRACON (SMA)
11:17PM 40.8483 -81.3533 277° West 339 390 23,800 600 Climbing FAA TRACON SMA TRACON (SMA)
11:17PM 40.8531 -81.3533 360° North 339 390 23,900 120 Climbing FAA TRACON SMA TRACON (SMA)
11:17PM 40.8531 -81.3533 210° Southwest 339 390 23,900 1,380 Level FAA TRACON SMA TRACON (SMA)
11:18PM 40.8719 -81.5386 278° West 335 386 25,500 1,500 Climbing Cleveland Center
11:19PM 40.8833 -81.6625 277° West 340 391 26,700 1,080 Climbing Cleveland Center
11:20PM 40.8947 -81.7753 278° West 348 400 27,700 600 Climbing Cleveland Center
11:21PM 40.9058 -81.9044 277° West 353 406 28,000 120 Climbing Cleveland Center
11:22PM 40.9208 -82.0450 278° West 375 432 28,000  Level Cleveland Center
11:23PM 40.9356 -82.1911 278° West 395 455 28,000  Level Cleveland Center
11:24PM 40.9500 -82.3453 277° West 416 479 28,000  Level Cleveland Center
11:25PM 40.9639 -82.5108 276° West 416 479 28,000  Level Cleveland Center
11:26PM 40.9781 -82.6569 277° West 416 479 28,000  Level Cleveland Center
11:27PM 40.9919 -82.8031 277° West 409 471 28,000  Level Cleveland Center
11:28PM 41.0036 -82.9494 276° West 404 465 28,000  Level Cleveland Center
11:29PM 41.0150 -83.0983 276° West 409 471 28,000  Level Cleveland Center
11:30PM 41.0308 -83.2283 279° West 409 471 28,000  Level Cleveland Center
11:31PM 41.0439 -83.3831 276° West 409 471 28,000  Level Cleveland Center
11:32PM 41.0567 -83.5297 277° West 409 471 28,000  Level Cleveland Center
11:33PM 41.0697 -83.6761 277° West 409 471 28,000  Level Cleveland Center
11:34PM 41.0819 -83.8339 276° West 409 471 28,000  Level Cleveland Center
11:36PM 41.0997 -84.0833 275° West 388 447 28,000  Level Chicago Center
11:37PM 41.1111 -84.2239 276° West 384 442 28,000  Level Chicago Center
11:38PM 41.1214 -84.3647 276° West 383 441 28,000  Level Chicago Center
11:39PM 41.1308 -84.5050 275° West 383 441 28,000  Level Chicago Center
11:40PM 41.1414 -84.6456 276° West 383 441 28,000  Level Chicago Center
11:41PM 41.1508 -84.7858 275° West 382 440 28,000  Level Chicago Center
11:42PM 41.1611 -84.9250 276° West 380 437 28,000  Level Chicago Center
11:43PM 41.1703 -85.0661 275° West 383 441 28,000  Level Chicago Center
11:44PM 41.1800 -85.2050 275° West 380 437 28,000  Level Chicago Center
11:45PM 41.1886 -85.3439 275° West 377 434 28,000  Level Chicago Center
11:46PM 41.1969 -85.4861 274° West 382 440 28,000  Level Chicago Center
11:47PM 41.2064 -85.6256 275° West 378 435 28,000  Level Chicago Center
11:48PM 41.2181 -85.7947 275° West 382 440 28,000  Level Chicago Center
11:49PM 41.2253 -85.9347 274° West 381 438 28,000  Level Chicago Center
11:50PM 41.2342 -86.0731 275° West 377 434 28,000  Level Chicago Center
11:51PM 41.2425 -86.2150 275° West 384 442 28,000  Level Chicago Center
11:52PM 41.2508 -86.3567 275° West 386 444 28,000  Level Chicago Center
11:53PM 41.2592 -86.4986 275° West 387 445 28,000  Level Chicago Center
11:54PM 41.2661 -86.6425 274° West 390 449 28,000  Level Chicago Center
11:55PM 41.2744 -86.7894 274° West 391 450 28,000  Level Chicago Center
11:56PM 41.2817 -86.9314 274° West 389 448 28,000  Level Chicago Center
11:57PM 41.2900 -87.0714 275° West 383 441 28,000  Level Chicago Center
11:58PM 41.2972 -87.2125 274° West 385 443 28,000  Level Chicago Center
11:59PM 41.3036 -87.3514 274° West 381 438 28,000  Level Chicago Center
12:00AM 41.3125 -87.5192 274° West 379 436 28,000  Level Chicago Center
12:01AM 41.3186 -87.6592 273° West 381 438 28,000  Level Chicago Center
12:02AM 41.3250 -87.7997 274° West 381 438 28,000  Level Chicago Center
12:03AM 41.3314 -87.9403 274° West 379 436 28,000  Level Chicago Center
12:04AM 41.3369 -88.0839 273° West 381 438 28,000  Level Chicago Center
12:05AM 41.3431 -88.2267 273° West 380 437 28,000 180 Level Chicago Center
12:06AM 41.3486 -88.3658 273° West 376 433 28,400 600 Climbing Chicago Center
12:08AM 41.3539 -88.5006 273° West 368 423 29,300 780 Climbing Chicago Center
12:09AM 41.3589 -88.6314 273° West 357 411 30,100 780 Climbing Chicago Center
12:10AM 41.3633 -88.7606 273° West 353 406 30,900 780 Climbing Chicago Center
12:11AM 41.3681 -88.8878 273° West 347 399 31,700 780 Climbing Chicago Center
12:12AM 41.3728 -89.0150 273° West 347 399 32,600 780 Climbing Chicago Center
12:13AM 41.3761 -89.1400 272° West 341 392 33,400 660 Climbing Chicago Center
12:14AM 41.3814 -89.2864 273° West 343 395 34,000 240 Climbing Chicago Center
12:15AM 41.3858 -89.4186 273° West 354 407 34,000  Level Chicago Center
12:16AM 41.3994 -89.5622 277° West 384 442 34,000  Level Chicago Center
12:17AM 41.4150 -89.7078 278° West 397 457 34,000  Level Chicago Center
12:18AM 41.4283 -89.8542 277° West 400 460 34,000  Level Chicago Center
12:19AM 41.4411 -89.9956 277° West 392 451 34,000  Level Chicago Center
12:20AM 41.4553 -90.1308 278° West 378 435 34,000 60 Level Chicago Center
12:21AM 41.4669 -90.2636 277° West 368 423 34,200 360 Climbing Chicago Center
12:22AM 41.4783 -90.3969 277° West 365 420 34,800 540 Climbing Chicago Center
12:23AM 41.4906 -90.5317 277° West 366 421 35,400 540 Climbing Chicago Center
12:24AM 41.5017 -90.6722 276° West 380 437 36,000 240 Climbing Chicago Center
12:25AM 41.5119 -90.8094 276° West 377 434 36,000  Level Chicago Center
12:26AM 41.5244 -90.9531 277° West 382 440 36,000  Level Chicago Center
12:27AM 41.5392 -91.1236 277° West 386 444 36,000  Level Chicago Center
12:28AM 41.5506 -91.2658 276° West 386 444 36,000  Level Chicago Center
12:29AM 41.5617 -91.4089 276° West 389 448 36,000  Level Chicago Center
12:30AM 41.5733 -91.5500 276° West 386 444 36,000  Level Chicago Center
12:31AM 41.5850 -91.6928 276° West 387 445 36,000  Level Chicago Center
12:32AM 41.5961 -91.8328 276° West 384 442 36,000  Level Chicago Center
12:33AM 41.6061 -91.9750 275° West 384 442 36,000  Level Chicago Center
12:34AM 41.6172 -92.1203 276° West 388 447 36,000  Level Chicago Center
12:35AM 41.6264 -92.2617 275° West 386 444 36,000  Level Chicago Center
12:36AM 41.6361 -92.4047 275° West 386 444 36,000  Level Chicago Center
12:37AM 41.6461 -92.5478 275° West 388 447 36,000  Level Chicago Center
12:38AM 41.6525 -92.6336 276° West 390 449 36,000  Level Minneapolis Center
12:39AM 41.6614 -92.7753 275° West 388 447 36,000  Level Minneapolis Center
12:40AM 41.6714 -92.9167 275° West 387 445 36,000  Level Minneapolis Center
12:41AM 41.6814 -93.0886 275° West 389 448 36,000  Level Minneapolis Center
12:42AM 41.6914 -93.2286 276° West 386 444 36,000  Level Minneapolis Center
12:43AM 41.7006 -93.3708 275° West 387 445 36,000  Level Minneapolis Center
12:44AM 41.7086 -93.5119 274° West 385 443 36,000  Level Minneapolis Center
12:45AM 41.6944 -93.6481 262° West 373 429 36,000  Level Minneapolis Center
12:46AM 41.6778 -93.7853 261° West 375 432 36,000  Level Minneapolis Center
12:47AM 41.6633 -93.9217 262° West 374 430 36,000  Level Minneapolis Center
12:48AM 41.6464 -94.0597 261° West 378 435 36,000  Level Minneapolis Center
12:49AM 41.6306 -94.1994 261° West 381 438 36,000  Level Minneapolis Center
12:50AM 41.6106 -94.3611 261° West 385 443 36,000  Level Minneapolis Center
12:51AM 41.5931 -94.5019 261° West 384 442 36,000  Level Minneapolis Center
12:52AM 41.5756 -94.6447 261° West 387 445 36,000  Level Minneapolis Center
12:53AM 41.5581 -94.7861 261° West 386 444 36,000  Level Minneapolis Center
12:54AM 41.5406 -94.9281 261° West 387 445 36,000  Level Minneapolis Center
12:55AM 41.5228 -95.0692 260° West 386 444 36,000  Level Minneapolis Center
12:56AM 41.5044 -95.2111 260° West 389 448 36,000  Level Minneapolis Center
12:57AM 41.4853 -95.3539 260° West 390 449 36,000  Level Minneapolis Center
12:58AM 41.4664 -95.4958 260° West 390 449 36,000  Level Minneapolis Center
12:59AM 41.4458 -95.6542 260° West 391 450 36,000  Level Minneapolis Center
01:00AM 41.4281 -95.7975 261° West 392 451 36,000  Level Minneapolis Center
01:01AM 41.4072 -95.9408 259° West 392 451 36,000  Level Minneapolis Center
01:02AM 41.3886 -96.0858 260° West 395 455 36,000  Level Minneapolis Center
01:03AM 41.3678 -96.2292 259° West 395 455 36,000  Level Minneapolis Center
01:04AM 41.3483 -96.3733 260° West 396 456 36,000  Level Minneapolis Center
01:05AM 41.3283 -96.5169 260° West 396 456 36,000  Level Minneapolis Center
01:06AM 41.3072 -96.6619 259° West 398 458 36,000  Level Minneapolis Center
01:07AM 41.2861 -96.8064 259° West 398 458 36,000  Level Minneapolis Center
01:08AM 41.2656 -96.9519 259° West 400 460 36,000  Level Minneapolis Center
01:09AM 41.2436 -97.0975 259° West 401 461 36,000  Level Minneapolis Center
01:11AM 41.2076 -97.3214 258° West  Level FlightAware Approximate
01:11AM 41.1864 -97.4839 258° West 408 470 36,000  Level Denver Center
01:12AM 41.1772 -97.5428 258° West 408 470 36,000  Level Minneapolis Center
01:13AM 41.1544 -97.6911 259° West 410 472 36,000  Level Minneapolis Center
01:14AM 41.1319 -97.8403 259° West 412 474 36,000  Level Minneapolis Center
01:15AM 41.1089 -97.9894 258° West 412 474 36,000  Level Minneapolis Center
01:16AM 41.0864 -98.1389 259° West 413 475 36,000  Level Minneapolis Center
01:17AM 41.0631 -98.2889 258° West 414 476 36,000  Level Minneapolis Center
01:18AM 41.0361 -98.4611 258° West 412 474 36,000  Level Minneapolis Center
01:19AM 41.0122 -98.6111 258° West 414 476 36,000  Level Minneapolis Center
01:20AM 40.9892 -98.7611 259° West 415 478 36,000  Level Minneapolis Center
01:21AM 40.9644 -98.9100 258° West 415 478 36,000  Level Minneapolis Center
01:22AM 40.9392 -99.0589 257° West 415 478 36,000  Level Minneapolis Center
01:23AM 40.9267 -99.1372 258° West 416 479 36,000  Level Denver Center
01:24AM 40.9017 -99.2872 258° West 416 479 36,000  Level Denver Center
01:25AM 40.8764 -99.4367 257° West 416 479 36,000  Level Denver Center
01:26AM 40.8514 -99.5858 258° West 416 479 36,000  Level Denver Center
01:27AM 40.8253 -99.7367 257° West 419 482 36,000  Level Denver Center
01:28AM 40.8000 -99.8764 257° West 416 479 36,000  Level Denver Center
01:29AM 40.7678 -100.0697 258° West 422 486 36,000  Level Denver Center
01:30AM 40.7419 -100.2144 257° West 421 484 36,000  Level Denver Center
01:31AM 40.7164 -100.3597 257° West 423 487 36,000  Level Denver Center
01:32AM 40.6864 -100.5300 257° West 424 488 36,000  Level Denver Center
01:33AM 40.6597 -100.6778 257° West 427 491 36,000  Level Denver Center
01:34AM 40.6322 -100.8261 256° West 428 493 36,000  Level Denver Center
01:35AM 40.6061 -100.9736 257° West 429 494 36,000  Level Denver Center
01:36AM 40.5747 -101.1450 256° West 429 494 36,000  Level Denver Center
01:37AM 40.5472 -101.2914 256° West 429 494 36,000  Level Denver Center
01:38AM 40.5208 -101.4372 257° West 429 494 36,000  Level Denver Center
01:39AM 40.4894 -101.6078 256° West 429 494 36,000  Level Denver Center
01:40AM 40.4617 -101.7492 256° West 421 484 36,000  Level Denver Center
01:41AM 40.4350 -101.8917 256° West 420 483 36,000  Level Denver Center
01:42AM 40.4017 -102.0542 255° West 415 478 36,000  Level Denver Center
01:43AM 40.3750 -102.1950 256° West 414 476 36,000  Level Denver Center
01:44AM 40.3486 -102.3347 256° West 414 476 36,000 -540 Level Denver Center
01:45AM 40.3144 -102.4989 255° West 419 482 35,000 -1,080 Descending Denver Center
01:46AM 40.2861 -102.6433 256° West 427 491 33,900 -1,200 Descending Denver Center
01:47AM 40.2567 -102.7931 256° West 419 482 32,700 -1,200 Descending Denver Center
01:48AM 40.2281 -102.9392 256° West 413 475 31,500 -1,140 Descending Denver Center
01:49AM 40.1975 -103.0822 254° West 406 467 30,400 -1,320 Descending Denver Center
01:50AM 40.1683 -103.2244 255° West 402 463 28,900 -1,740 Descending Denver Center
01:51AM 40.1389 -103.3733 256° West 418 481 27,000 -1,980 Descending Denver Center
01:52AM 40.1061 -103.5233 254° West 425 489 25,000 -1,980 Descending Denver Center
01:53AM 40.0756 -103.6750 255° West 429 494 23,100 -1,980 Descending Denver Center
01:54AM 40.0439 -103.8244 255° West 435 501 21,000 -2,100 Descending Denver Center
01:55AM 40.0147 -103.9603 254° West 400 460 18,900 -2,040 Descending Denver Center
01:56AM 40.0006 -104.0908 262° West 364 419 16,900 -2,100 Descending Denver Center
01:57AM 39.9892 -104.2183 263° West 332 382 14,700 -1,920 Descending Denver Center
01:58AM 39.9847 -104.3294 267° West 299 344 13,100 -1,020 Descending Denver Center
01:59AM 39.9833 -104.4000 269° West 272 313 13,000 -720 Descending Denver TRACON
02:00AM 39.9833 -104.5000 270° West 218 251 11,800 -1,020 Descending Denver TRACON
02:01AM 39.9833 -104.5667 270° West 189 217 10,900 -1,560 Descending Denver TRACON
02:02AM 39.9833 -104.6333 270° West 186 214 8,900 -1,980 Descending Denver TRACON
02:02AM 39.9864 -104.6431 292° West 188 216 8,400 -1,680 Descending Denver Center
02:03AM 39.9494 -104.6864 222° Southwest 189 217 6,800 -1,380 Descending Denver Center
02:04AM 39.9056 -104.6864 180° South 159 183 5,700 -1,140 Descending Denver Center
02:06AM 39.8617 -104.6732 191° South  Level Estimated
02:13AM 39.8617 -104.6732 191° South  Level Estimated
02:14AM 39.8617 -104.6732 191° South  Level Estimated
02:15AM 39.8617 -104.6732 191° South  Level Estimated